[[{"header":{"parameterUnit":"m.s-1","parameterCategory":1,"la1":30.2991,"la2":30.254,"lo1":-89.0895,"lo2":-89.0444,"dy":0.0017,"dx":0.0017,"nx":28,"ny":28,"refTime":"2023-10-28T03:00:00:Z","depth":0,"parameterNumber":2,"parameterNumberName":"U-component_of_WINDS"},"data":[0,0,0,0,0,0,0,0,0,0,0,0,0,0,0,0,0,0,0,0,0,0,0,0,0,0,0,0,0,0,0,0,0,0,0,0,0,0,0,0,0,0,0,0,0,0,0,0,0,0,0,0,0,0,0,0,0,0,-2.5007,-2.5007,0,-2.4973,-2.4972,-2.4972,-2.4862,-2.4859,-2.4857,-2.4854,-2.4822,-2.4823,-2.4825,0,0,0,0,0,0,0,0,0,0,0,0,0,-2.498,-2.4981,-2.5007,-2.5007,-2.5006,-2.4973,-2.4972,-2.4972,-2.4862,-2.4859,-2.4856,-2.4853,-2.4822,-2.4823,-2.4825,0,0,0,0,0,0,0,0,0,0,0,0,0,-2.4974,-2.4982,-2.5007,-2.4947,-2.4942,-2.4973,-2.4972,-2.4972,-2.4863,-2.4859,-2.4855,-2.4852,-2.4821,-2.4823,-2.4825,-2.4912,0,0,-2.4832,-2.4833,0,0,0,0,0,0,0,0,-2.4974,-2.4975,-2.4957,-2.4952,-2.4945,-2.4918,-2.4951,-2.4952,-2.4864,-2.4893,-2.4854,-2.485,-2.4857,-2.4856,-2.4858,-2.4911,-2.491,-2.4832,-2.4833,-2.4834,-2.4835,0,0,0,0,0,0,0,-2.4975,-2.4976,-2.4993,-2.4956,-2.495,-2.4923,-2.4918,-2.4951,-2.4896,-2.489,-2.4882,-2.4879,-2.4853,-2.4856,-2.4856,-2.4909,-2.4832,-2.4834,-2.4835,-2.4836,-2.5032,-2.5036,0,0,0,0,0,0,-2.4983,-2.4977,-2.4995,-2.4992,-2.4951,-2.4927,-2.4921,-2.493,-2.4895,-2.4887,-2.4882,-2.4874,-2.4854,-2.4854,-2.4855,-2.4954,-2.4834,-2.4836,-2.4837,-2.5028,-2.5033,-2.5037,0,0,0,0,0,0,-2.4983,-2.4986,-2.4996,-2.4982,-2.4982,-2.4931,-2.4942,-2.4932,-2.4934,-2.489,-2.488,-2.4895,-2.4851,-2.4852,-2.4899,-2.4951,-2.4837,-2.4839,-2.5023,-2.5029,-2.5035,-2.5153,0,0,0,0,0,0,-2.4983,-2.4987,-2.5019,-2.4984,-2.4983,-2.504,-2.4946,-2.4934,-2.4938,-2.4927,-2.4899,-2.4891,-2.4848,-2.4896,-2.4901,-2.4952,-2.4841,-2.5018,-2.5026,-2.5033,-2.5144,-2.5162,-2.5178,0,0,0,0,0,-2.4982,-2.5054,-2.5021,-2.5024,-2.5022,-2.5043,-2.5043,-2.4992,-2.4942,-2.4974,-2.4946,-2.4892,-2.4945,-2.4902,-2.4906,-2.4959,-2.5015,-2.5024,-2.5032,-2.5137,-2.5159,-2.5178,0,0,0,0,0,0,-2.5097,-2.5048,-2.5011,-2.5073,-2.5063,-2.5025,-2.5063,-2.5017,-2.5021,-2.5011,-2.4948,-2.4943,-2.4999,-2.4983,-2.4936,-2.5041,-2.4971,-2.4981,-2.5049,-2.5069,-2.5086,-2.5088,-2.4843,0,0,0,0,0,-2.513,-2.515,-2.5107,-2.5166,-2.5163,-2.5115,-2.5122,-2.5084,-2.5071,-2.5066,-2.5041,-2.5032,-2.5046,-2.5057,-2.5068,-2.5142,-2.5134,-2.5181,-2.5198,-2.5211,-2.5221,-2.5258,-2.5278,-2.5066,-2.5066,-2.5066,0,0,-2.5197,-2.5173,-2.519,-2.5189,-2.5176,-2.52,-2.5112,-2.514,-2.5157,-2.5071,-2.5113,-2.5095,-2.508,-2.5141,-2.5167,-2.513,-2.5278,-2.5223,-2.5234,-2.5236,-2.5269,-2.529,-2.5308,-2.5072,-2.5071,-2.507,0,0,-2.5331,-2.5316,-2.5363,-2.5352,-2.5334,-2.5301,-2.5313,-2.5282,-2.5266,-2.5307,-2.5242,-2.5263,-2.5289,-2.5281,-2.5281,-2.5413,-2.5363,-2.5419,-2.5506,-2.5543,-2.556,-2.5574,-2.5621,-2.5639,-2.5428,-2.5429,-2.5429,0,-2.5418,-2.5449,-2.5393,-2.5426,-2.5427,-2.535,-2.5397,-2.539,-2.5377,-2.5381,-2.534,-2.5371,-2.5356,-2.5414,-2.5446,-2.5448,-2.546,-2.5421,-2.5562,-2.5576,-2.5589,-2.5632,-2.565,-2.5435,-2.5434,-2.5434,-2.5433,0,-2.5556,-2.5579,-2.562,-2.5608,-2.5614,-2.5655,-2.5605,-2.5619,-2.558,-2.5552,-2.5596,-2.5575,-2.558,-2.5591,-2.5554,-2.5644,-2.5622,-2.5573,-2.55,-2.5617,-2.5656,-2.5673,-2.5445,-2.5443,-2.544,-2.5439,0,0,-2.576,-2.5717,-2.5733,-2.5726,-2.5701,-2.5719,-2.5756,-2.576,-2.5773,-2.5767,-2.5797,-2.5821,-2.5775,-2.5775,-2.5737,-2.577,-2.5876,-2.5717,-2.5715,-2.5746,-2.5973,-2.6009,-2.6029,-2.5843,-2.5846,-2.5848,-2.5974,0,-2.5887,-2.5946,-2.5897,-2.5966,-2.5987,-2.5914,-2.5946,-2.5935,-2.5911,-2.5925,-2.5898,-2.5916,-2.5855,-2.5854,-2.5884,-2.5857,-2.592,-2.5847,-2.587,-2.5872,-2.5875,-2.605,-2.6088,-2.6207,-2.5989,-2.5992,-2.5994,0,-2.6042,-2.6042,-2.6113,-2.6083,-2.609,-2.612,-2.6119,-2.6135,-2.6121,-2.61,-2.6101,-2.6054,-2.6089,-2.6019,-2.6067,-2.6018,-2.6025,-2.6014,-2.6017,-2.6016,-2.5939,-2.6053,-2.6244,-2.6262,-2.6018,-2.6016,-2.6014,0,-2.6182,-2.6201,-2.6245,-2.6242,-2.6209,-2.6231,-2.6219,-2.6201,-2.6207,-2.6208,-2.621,-2.6216,-2.6219,-2.6225,-2.6181,-2.6134,-2.6234,-2.6161,-2.6218,-2.622,-2.6241,-2.624,-2.6435,-2.6249,-2.6248,-2.6248,-2.6248,0,-2.6328,-2.6374,-2.6307,-2.6335,-2.6384,-2.6328,-2.638,-2.6359,-2.6345,-2.6367,-2.6306,-2.6329,-2.627,-2.6287,-2.6253,-2.6298,-2.63,-2.6285,-2.6275,-2.6289,-2.6291,-2.6292,-2.6282,-2.6253,-2.6252,-2.6251,-2.625,0,-2.6492,-2.645,-2.6493,-2.6458,-2.6451,-2.6489,-2.6459,-2.6483,-2.6455,-2.6484,-2.6488,-2.6444,-2.6461,-2.6418,-2.6429,-2.6406,-2.647,-2.6448,-2.6474,-2.6467,-2.6526,-2.6521,-2.6727,-2.6751,-2.6551,-2.6553,-2.6555,0,-2.6587,-2.662,-2.6589,-2.6599,-2.6589,-2.6607,-2.6612,-2.6559,-2.6567,-2.6555,-2.6581,-2.6593,-2.6599,-2.663,-2.6599,-2.6607,-2.6584,-2.6656,-2.6585,-2.6598,-2.6584,-2.6581,-2.6584,-2.667,-2.6673,-2.6675,-2.6676,0,-2.6759,-2.6736,-2.6746,-2.6748,-2.6756,-2.6756,-2.6751,-2.6764,-2.6707,-2.672,-2.6736,-2.6741,-2.6752,-2.6764,-2.6766,-2.6754,-2.6706,-2.6699,-2.6712,-2.6727,-2.674,-2.6733,-2.6513,-2.6694,-2.6692,-2.6691,-2.669,-2.6689,-2.689,-2.6916,-2.6898,-2.6911,-2.6902,-2.6899,-2.692,-2.6894,-2.6906,-2.691,-2.6879,-2.6902,-2.6888,-2.6885,-2.6878,-2.6895,-2.6863,-2.6883,-2.6887,-2.6893,-2.6902,-2.6739,-2.6896,-2.6895,-2.6895,-2.6894,-2.6894,0,-2.7058,-2.7043,-2.7055,-2.705,-2.706,-2.7014,-2.7007,-2.7019,-2.7039,-2.703,-2.7038,-2.7057,-2.7069,-2.704,-2.7047,-2.7067,-2.7046,-2.7071,-2.7068,-2.7066,-2.6931,-2.6918,-2.7088,-2.7088,-2.7088,-2.7088,-2.7088,-2.7088,-2.7146,-2.7187,-2.7163,-2.72,-2.7185,-2.7206,-2.7206,-2.7203,-2.7195,-2.7219,-2.7228,-2.7209,-2.7192,-2.7198,-2.7207,-2.7198,-2.7204,-2.7237,-2.722,-2.7095,-2.7076,-2.7057,-2.7045,-2.7239,-2.7239,-2.7353,-2.7354,-2.7355]},{"header":{"parameterUnit":"m.s-1","parameterCategory":1,"la1":30.2991,"la2":30.254,"lo1":-89.0895,"lo2":-89.0444,"dy":0.0017,"dx":0.0017,"nx":28,"ny":28,"refTime":"2023-10-28T03:00:00:Z","depth":0,"parameterNumber":3,"parameterNumberName":"V-component_of_WINDS"},"data":[0,0,0,0,0,0,0,0,0,0,0,0,0,0,0,0,0,0,0,0,0,0,0,0,0,0,0,0,0,0,0,0,0,0,0,0,0,0,0,0,0,0,0,0,0,0,0,0,0,0,0,0,0,0,0,0,0,0,-0.8199,-0.8199,0,-0.8255,-0.8255,-0.8256,-0.8305,-0.8305,-0.8306,-0.8306,-0.8361,-0.8362,-0.8363,0,0,0,0,0,0,0,0,0,0,0,0,0,-0.8131,-0.8132,-0.8199,-0.8199,-0.82,-0.8254,-0.8255,-0.8256,-0.8304,-0.8305,-0.8306,-0.8306,-0.8361,-0.8362,-0.8363,0,0,0,0,0,0,0,0,0,0,0,0,0,-0.8171,-0.8132,-0.8199,-0.8231,-0.8234,-0.8254,-0.8255,-0.8256,-0.8304,-0.8305,-0.8306,-0.8307,-0.836,-0.8361,-0.8363,-0.8354,0,0,-0.8367,-0.8368,0,0,0,0,0,0,0,0,-0.8169,-0.8173,-0.8226,-0.8229,-0.8233,-0.8274,-0.8251,-0.8289,-0.8304,-0.8278,-0.8306,-0.8307,-0.8331,-0.8335,-0.8343,-0.8357,-0.8359,-0.8367,-0.8368,-0.8369,-0.8369,0,0,0,0,0,0,0,-0.8166,-0.8171,-0.8221,-0.8226,-0.8231,-0.8242,-0.8248,-0.8259,-0.8299,-0.828,-0.8284,-0.829,-0.8333,-0.8342,-0.8345,-0.836,-0.8367,-0.8368,-0.8369,-0.837,-0.8367,-0.8366,0,0,0,0,0,0,-0.8158,-0.8169,-0.8219,-0.8222,-0.8202,-0.8242,-0.825,-0.8259,-0.8299,-0.8306,-0.8289,-0.8292,-0.8339,-0.8343,-0.8347,-0.8338,-0.8369,-0.837,-0.8371,-0.8368,-0.8367,-0.8366,0,0,0,0,0,0,-0.8157,-0.8163,-0.8217,-0.8197,-0.8204,-0.8242,-0.8253,-0.826,-0.8269,-0.8306,-0.8313,-0.8291,-0.834,-0.8345,-0.8352,-0.834,-0.8371,-0.8372,-0.8369,-0.8368,-0.8367,-0.832,0,0,0,0,0,0,-0.8155,-0.8162,-0.816,-0.8196,-0.8205,-0.8221,-0.8253,-0.8261,-0.8272,-0.8276,-0.8309,-0.8315,-0.8341,-0.835,-0.8353,-0.8343,-0.8373,-0.837,-0.8369,-0.8367,-0.8323,-0.8318,-0.8313,0,0,0,0,0,-0.8152,-0.8144,-0.8159,-0.8165,-0.8204,-0.8221,-0.8226,-0.8256,-0.8271,-0.8268,-0.8291,-0.8314,-0.8342,-0.835,-0.8354,-0.8344,-0.8371,-0.8369,-0.8367,-0.8325,-0.8319,-0.8313,0,0,0,0,0,0,-0.8105,-0.815,-0.8167,-0.8171,-0.8192,-0.8229,-0.8227,-0.8248,-0.8265,-0.8268,-0.8304,-0.8311,-0.8313,-0.833,-0.8338,-0.8337,-0.8359,-0.8358,-0.8326,-0.832,-0.8315,-0.831,-0.8374,0,0,0,0,0,-0.8095,-0.8106,-0.8145,-0.8145,-0.8154,-0.8189,-0.8197,-0.8219,-0.8241,-0.825,-0.8274,-0.8294,-0.8307,-0.8315,-0.8329,-0.8326,-0.8333,-0.8321,-0.8316,-0.8312,-0.831,-0.8307,-0.8302,-0.836,-0.836,-0.836,0,0,-0.8075,-0.8101,-0.8106,-0.8136,-0.8154,-0.8163,-0.8196,-0.8205,-0.8211,-0.8251,-0.8259,-0.8277,-0.8302,-0.8303,-0.8305,-0.8317,-0.8296,-0.831,-0.8306,-0.8306,-0.8305,-0.8299,-0.8294,-0.8358,-0.8358,-0.8359,0,0,-0.8042,-0.8064,-0.8065,-0.8083,-0.8111,-0.8134,-0.8134,-0.8168,-0.8181,-0.819,-0.8219,-0.8227,-0.8249,-0.8265,-0.8276,-0.8248,-0.8269,-0.8252,-0.8224,-0.8221,-0.8217,-0.8213,-0.82,-0.8196,-0.825,-0.825,-0.825,0,-0.8013,-0.8029,-0.8063,-0.8069,-0.8081,-0.8118,-0.8118,-0.8134,-0.8164,-0.8171,-0.8184,-0.8211,-0.8231,-0.8235,-0.8228,-0.8237,-0.8237,-0.8247,-0.8215,-0.8211,-0.8208,-0.8196,-0.8192,-0.8247,-0.8247,-0.8248,-0.8248,0,-0.799,-0.8001,-0.7999,-0.8027,-0.8039,-0.8042,-0.8075,-0.8082,-0.8102,-0.8123,-0.813,-0.8155,-0.8173,-0.8177,-0.8197,-0.8183,-0.8189,-0.8208,-0.8231,-0.82,-0.8189,-0.8185,-0.8244,-0.8244,-0.8245,-0.8246,0,0,-0.7929,-0.7976,-0.7974,-0.7987,-0.802,-0.8028,-0.8032,-0.8051,-0.8055,-0.8075,-0.8078,-0.8096,-0.8113,-0.8125,-0.8147,-0.8145,-0.8118,-0.8164,-0.8165,-0.8153,-0.8102,-0.8085,-0.808,-0.8133,-0.8132,-0.8132,-0.8099,0,-0.79,-0.791,-0.794,-0.7941,-0.795,-0.7985,-0.7989,-0.8008,-0.8028,-0.8037,-0.8059,-0.8069,-0.8093,-0.81,-0.81,-0.8121,-0.8108,-0.8125,-0.8134,-0.8134,-0.8124,-0.8075,-0.8058,-0.8026,-0.8095,-0.8095,-0.8094,0,-0.7867,-0.7884,-0.7886,-0.7917,-0.7922,-0.7924,-0.7943,-0.7952,-0.7975,-0.7989,-0.8002,-0.8026,-0.8031,-0.8054,-0.8059,-0.807,-0.8076,-0.8087,-0.8086,-0.8087,-0.811,-0.8071,-0.8017,-0.801,-0.8089,-0.8089,-0.8089,0,-0.7818,-0.7843,-0.7846,-0.7856,-0.7893,-0.7894,-0.7909,-0.7933,-0.7941,-0.7957,-0.7963,-0.7979,-0.7987,-0.7999,-0.8026,-0.8041,-0.8028,-0.8053,-0.8038,-0.8037,-0.8032,-0.8031,-0.7975,-0.804,-0.804,-0.804,-0.804,0,-0.7781,-0.778,-0.7825,-0.7826,-0.7826,-0.786,-0.7858,-0.7876,-0.7897,-0.7902,-0.7934,-0.7937,-0.7974,-0.7982,-0.8003,-0.8003,-0.8007,-0.8017,-0.8023,-0.8013,-0.8011,-0.8016,-0.8018,-0.8038,-0.8039,-0.8039,-0.8039,0,-0.7726,-0.7757,-0.7762,-0.7797,-0.7805,-0.7803,-0.7832,-0.7834,-0.7856,-0.7861,-0.7864,-0.7897,-0.7908,-0.7937,-0.7955,-0.7969,-0.7961,-0.7973,-0.7954,-0.7957,-0.7938,-0.7939,-0.788,-0.7873,-0.7945,-0.7944,-0.7944,0,-0.77,-0.77,-0.7734,-0.774,-0.7754,-0.7763,-0.7772,-0.7805,-0.7813,-0.7838,-0.7836,-0.7849,-0.7861,-0.7875,-0.79,-0.7913,-0.7924,-0.7903,-0.7926,-0.7916,-0.792,-0.7919,-0.7918,-0.7897,-0.7896,-0.7895,-0.7894,0,-0.7648,-0.7662,-0.7675,-0.7691,-0.7701,-0.7716,-0.7732,-0.7735,-0.7772,-0.7779,-0.779,-0.7799,-0.7817,-0.7828,-0.7845,-0.7859,-0.7882,-0.7887,-0.7884,-0.7873,-0.786,-0.7864,-0.7937,-0.7888,-0.7888,-0.7889,-0.7889,-0.789,-0.7604,-0.7605,-0.7629,-0.7641,-0.7657,-0.7671,-0.7674,-0.7696,-0.7706,-0.7723,-0.7742,-0.775,-0.7771,-0.7796,-0.7809,-0.7814,-0.7827,-0.7823,-0.7821,-0.7819,-0.7813,-0.7861,-0.7818,-0.7818,-0.7819,-0.7819,-0.7819,0,-0.7552,-0.7569,-0.7579,-0.7601,-0.761,-0.7632,-0.7651,-0.7656,-0.7663,-0.7681,-0.7692,-0.7704,-0.7715,-0.774,-0.7753,-0.7752,-0.7763,-0.7754,-0.7753,-0.7756,-0.7803,-0.7803,-0.7746,-0.7746,-0.7746,-0.7746,-0.7746,-0.7746,-0.7525,-0.7527,-0.7544,-0.7553,-0.757,-0.7578,-0.7587,-0.7599,-0.7614,-0.7625,-0.7635,-0.7652,-0.7672,-0.7686,-0.7697,-0.7704,-0.7706,-0.7693,-0.7703,-0.7746,-0.7753,-0.7759,-0.776,-0.7694,-0.7694,-0.7655,-0.7655,-0.7655]}]]